Flag for U.S.A. Weather past 2 weeks in Corvallis, Oregon, U.S.A.

Now
66 °F

Clear.


Feels Like: 66 °F
Forecast: 61 / 98 °F
Wind: 9 mph from Northwest

Location: Corvallis Municipal

Current Time: Jul 2, 2015 at 1:31:30 AM

Latest Report: Jul 2, 2015 at 12:55 AM


Visibility: 10 mi

Pressure: 29.95 "Hg

Humidity: 68%

Dew point: 55 °F

Location of CorvallisLocation

Historic Weather in Corvallis — Graph

°F

Corvallis temperature yesterday

Maximum temperature yesterday: 100 °F (at 4:35 PM)
Minimum temperature yesterday: 57 °F (at 5:15 AM)
Average temperature yesterday: 77 °F

Past Weeks' High & Low Weather Summary

 TemperatureHumidityPressure
High100 °F (Jun 26, 3:55 PM)94% (Jun 19, 4:15 AM)30.18 "Hg (Jun 19, 4:15 AM)
Low46 °F (Jun 17, 5:55 AM)13% (Jun 20, 4:15 PM)29.84 "Hg (Jun 26, 5:55 PM)
Average70 °F54%30.03 "Hg
* Reported Jun 17 3:15 AM — Jul 2 12:35 AM, Corvallis, Weather by CustomWeather, © 2015

Note: Actual official high and low records may vary slightly from our data, if they occured in-between our weather recording intervals... More about our weather records

Advertising

Corvallis weather history for previous 24 hours

 ConditionsComfort  
Time TempWeatherWind HumidityBarometerVisibility
12:35 AM
Thu, Jul 2
68 °FClear.10 mph64%29.95 "Hg10 mi
12:15 AM68 °FClear.14 mph64%29.95 "Hg10 mi
11:55 PM
Wed, Jul 1
70 °FClear.16 mph60%29.95 "Hg10 mi
11:35 PM70 °FClear.16 mph60%29.95 "Hg10 mi
11:15 PM72 °FClear.16 mph57%29.95 "Hg10 mi
10:55 PM72 °FClear.17 mph57%29.94 "Hg10 mi
10:35 PM73 °FClear.15 mph53%29.94 "Hg10 mi
10:15 PM73 °FClear.14 mph53%29.93 "Hg10 mi
9:55 PM73 °FSunny.14 mph53%29.93 "Hg10 mi
9:35 PM75 °FSunny.17 mph50%29.92 "Hg10 mi
9:15 PM77 °FSunny.18 mph47%29.91 "Hg10 mi
8:35 PM81 °FSunny.15 mph45%29.90 "Hg10 mi
8:15 PM82 °FSunny.16 mph42%29.89 "Hg10 mi
7:55 PM86 °FSunny.15 mph38%29.89 "Hg10 mi
7:35 PM88 °FSunny.15 mph35%29.89 "Hg10 mi
7:15 PM90 °FSunny.16 mph31%29.88 "Hg10 mi
6:55 PM91 °FSunny.15 mph30%29.87 "Hg10 mi
6:35 PM93 °FSunny.15 mph30%29.87 "Hg10 mi
6:15 PM93 °FSunny.14 mph30%29.87 "Hg10 mi
5:55 PM97 °FSunny.14 mph25%29.87 "Hg10 mi
5:35 PM97 °FSunny.13 mph27%29.87 "Hg10 mi
5:15 PM99 °FSunny.14 mph25%29.88 "Hg10 mi
4:55 PM99 °FSunny.10 mph24%29.88 "Hg10 mi
4:35 PM100 °FSunny.10 mph17%29.88 "Hg10 mi
4:15 PM99 °FSunny.13 mph18%29.88 "Hg10 mi
3:55 PM99 °FSunny.10 mph18%29.89 "Hg10 mi
3:35 PM99 °FSunny.9 mph19%29.90 "Hg10 mi
2:55 PM97 °FSunny.10 mph22%29.91 "Hg10 mi
2:15 PM97 °FSunny.10 mph22%29.92 "Hg10 mi
1:55 PM95 °FSunny.12 mph25%29.93 "Hg10 mi
1:35 PM93 °FSunny.12 mph26%29.93 "Hg10 mi
1:15 PM91 °FSunny.10 mph28%29.94 "Hg10 mi
12:55 PM91 °FSunny.13 mph30%29.94 "Hg10 mi
12:35 PM90 °FSunny.9 mph29%29.95 "Hg8 mi
12:15 PM90 °FSunny.7 mph29%29.96 "Hg10 mi
11:55 AM88 °FSunny.3 mph31%29.96 "Hg10 mi
11:35 AM84 °FSunny.3 mph35%29.97 "Hg10 mi
11:15 AM82 °FSunny.7 mph35%29.97 "Hg10 mi
10:55 AM82 °FSunny.6 mph35%29.98 "Hg10 mi
10:35 AM81 °FSunny.7 mph37%29.98 "Hg10 mi
10:15 AM81 °FSunny.8 mph37%29.98 "Hg10 mi
9:55 AM79 °FSunny.7 mph37%29.98 "Hg10 mi
9:35 AM77 °FSunny.8 mph36%29.99 "Hg10 mi
9:15 AM75 °FSunny.8 mph39%30.00 "Hg10 mi
8:55 AM75 °FSunny.7 mph39%30.00 "Hg10 mi
8:35 AM73 °FSunny.6 mph47%30.00 "Hg10 mi
8:15 AM72 °FSunny.5 mph50%30.00 "Hg10 mi
7:55 AM70 °FSunny.6 mph53%30.00 "Hg10 mi
7:35 AM66 °FSunny.3 mph64%30.01 "Hg10 mi
7:15 AM63 °FSunny.5 mph73%30.01 "Hg10 mi
6:55 AM61 °FSunny.6 mph77%30.01 "Hg10 mi
6:35 AM61 °FSunny.6 mph77%30.01 "Hg10 mi
6:15 AM59 °FClear.3 mph82%30.01 "Hg10 mi
5:55 AM57 °FClear.6 mph82%30.01 "Hg10 mi
5:35 AM57 °FClear.No wind82%30.01 "Hg10 mi
5:15 AM57 °FClear.7 mph82%30.01 "Hg10 mi
4:55 AM59 °FClear.9 mph77%30.01 "Hg10 mi
4:35 AM59 °FClear.9 mph77%30.01 "Hg10 mi
4:15 AM61 °FClear.7 mph77%30.01 "Hg10 mi
3:55 AM61 °FClear.6 mph77%30.01 "Hg10 mi
3:35 AM61 °FClear.6 mph77%30.01 "Hg10 mi
3:15 AM63 °FClear.9 mph73%30.01 "Hg10 mi
2:55 AM63 °FClear.8 mph73%30.01 "Hg10 mi
2:35 AM63 °FClear.10 mph73%30.01 "Hg10 mi
2:15 AM63 °FClear.9 mph73%30.02 "Hg10 mi
1:55 AM63 °FClear.9 mph73%30.01 "Hg10 mi
1:35 AM64 °FClear.12 mph68%30.01 "Hg10 mi
1:15 AM64 °FClear.9 mph68%30.01 "Hg10 mi
Weather by CustomWeather, © 2015

See weather overviewHow to use our weather pages